TITAN 3C TRANSTAGE DEB, 1835

Orbit data source: Space-Track

TITAN 3C TRANSTAGE DEB, 1835 is space debris in LEO originally from a launch on Fri, 15 Oct 1965 UTC launched from the Air Force Eastern Test Range (AFETR). Debris objects in space refer to the collection of defunct objects orbiting the Earth. Examples of debris include non-operational satellites, rocket bodies, and fragments generated from explosions, collisions, or faulty payload assembly.

Loading next visibility...
Identifier
1835, 1965-082EA
Orbit
LEO
Country
Flag of USUS
Related business
Manufacturer
Unknown
Mission
Spacecraft
Bus & Motor
Unknown
Mass
Unknown
Launch date (UTC)
1965-10-15 (60 years ago)
Launch vehicle
Unknown
Launch site
Air Force Eastern Test Range (AFETR)
Object type
Payload
Rocket body
Debris
Shape & HBR
Unknown shape, 0.2 m
Radar Cross Section
Small (<0.1 m²)

Expand to show TLE details & history
Last TLE update: 1 day ago

TLE from 1 day ago
0 TITAN 3C TRANSTAGE DEB
1 01835U 65082EA  25310.41533275  .00007262  00000-0  47203-3 0  9995
2 01835  32.3958 353.6670 0012663 244.2087 115.7270 15.06830239213718
Epoch: 2025-11-06T09:58Z
TLE epoch observation values (Epoch: 2025-11-06T09:58:04.749Z)
Latitude
0.00002°
Longitude
158.27326°
Altitude
548.357 km
Speed
7.588 km/s
True Right ascension
23h 34m 40s
True Declination
0° 00' 00"
Sunlit
Object was in full shadow at epoch
Visualization orbit readout
Latitude
Unknown
Longitude
Unknown
Altitude
Unknown
Speed
Unknown
Apparent Right ascension
Unknown
Apparent Declination
Unknown
Sunlit
N/A
Visualization observer readout
Local Sidereal Time
09:42:39
Azimuth
Unknown
Elevation
Unknown
Doppler factor
Unknown
Orbital elements
Apogee altitude
558.293 km
Perigee altitude
540.748 km
Semi-major axis
6,927.658 km
Eccentricity
0.00127
Inclination
32.3958°
RAAN
353.667°
Arg. of periapsis
244.2087°
True anomaly
115.85763°
Mean anomaly
115.727°
Eccentric anomaly
115.79233°
Mean motion
3.76412 °/min
Orbital period
95.64 mins
BSTAR
0.00047203

Documentation

Showing up to 5 results
|